Weather in Privolnoye

Russia / Saratov Oblast     50°55′39″N   46°04′54″E
temp.,
°C
wind,
m/s
gust,
m/s
humid.,
%
clouds,
%
prec.,
mm/h
press.,
hPa
HPBL,
m
13 june, sun
sun1301:00+18sw337427 0.0 101133
04:00+17wsw22795 0.0 101112
07:00+18sw11770 0.0 101256
10:00+19s4674100 0.3 1012258
13:00+17s61087100 1.6 1013246
16:00+20sw5874100 1.6 1012258
19:00+19sse347891 0.0 1012109
22:00+19ssw2279100 0.0 101314
14 june, mon
mon1401:00+18s1182100 0.0 101311
04:00+18se1183100 0.0 101412
07:00+17sse2390100 0.2 101561
10:00+19ne3482100 0.3 1015123
13:00+18nne3392100 2.1 101696
16:00+17n5894100 2.8 1016195
19:00+18nne588991 0.2 1015217
22:00+17nne3597100 1.3 1014153
15 june, tue
tue1501:00+16nne2398100 2.1 101454
04:00+16nne3499100 4.9 101388
07:00+17ne239887 1.3 101399
10:00+20ne35848 1.8 1012326
13:00+23se366762 0.4 1010740
16:00+25sse47436 0.4 1009921
19:00+24s23586 0.0 100845
22:00+20se22740 0.0 100913
16 june, wed
wed1601:00+19nw33790 0.0 100817
04:00+18nw45890 0.0 100858
07:00+19nnw348316 0.0 100887
10:00+22nw34715 0.0 1009322
13:00+24w45610 0.0 1009568
16:00+25w4560100 0.0 1009703
19:00+24wnw3471100 0.0 1009132
22:00+20w2282100 0.0 101112
17 june, thu
thu1701:00+19w348599 0.0 101141
04:00+18wnw3390100 0.0 101123
07:00+19nw34855 0.0 1012126
10:00+22nnw347385 0.0 1013302
13:00+24n56670 0.0 1013466
16:00+23n89713 0.0 1014466
19:00+22n711774 0.0 1015429
22:00+19nne611823 0.0 1017291